,,PA_Meas_PMT16A,,PR_Meas_QMR101_102,,RH_Meas_QMH101,,SR_Meas_QMS101,,TA_Meas_QMH101,,GenWind,,GenWind,
time,status,PA,status,PR,status,RH,status,SR,status,TA,status,DirAvg,status,SpdAvg,
2015-04-29, 07:10:04,VALID,918.299,VALID,0,VALID,98.7385,VALID,96.3747,VALID,20.1903,VALID,7,VALID,0,
2015-04-29, 07:11:04,VALID,918.28,VALID,0,VALID,98.7537,VALID,89.1762,VALID,20.2293,VALID,7,VALID,0,
2015-04-29, 07:12:04,VALID,918.31,VALID,0,VALID,98.7461,VALID,96.9119,VALID,20.2684,VALID,7,VALID,0,
2015-04-29, 07:13:04,VALID,918.302,VALID,0,VALID,98.7385,VALID,101.962,VALID,20.2668,VALID,2,VALID,0,
2015-04-29, 07:14:04,VALID,918.314,VALID,0,VALID,98.7385,VALID,96.697,VALID,20.2863,VALID,1,VALID,0,
2015-04-29, 07:15:04,VALID,918.327,VALID,0,VALID,98.7004,VALID,98.7384,VALID,20.3074,VALID,1,VALID,0,
2015-04-29, 07:16:04,VALID,918.353,VALID,0,VALID,98.7461,VALID,107.226,VALID,20.3074,VALID,353,VALID,0,
2015-04-29, 07:17:04,VALID,918.39,VALID,0,VALID,98.7309,VALID,104.648,VALID,20.2684,VALID,352,VALID,0,
2015-04-29, 07:18:04,VALID,918.369,VALID,0,VALID,98.7309,VALID,104.863,VALID,20.2668,VALID,352,VALID,0,
2015-04-29, 07:19:04,VALID,918.425,VALID,0,VALID,98.708,VALID,113.673,VALID,20.3253,VALID,352,VALID,0,
2015-04-29, 07:20:04,VALID,918.421,VALID,0,VALID,98.7004,VALID,133.012,VALID,20.3643,VALID,353,VALID,0,
2015-04-29, 07:21:04,VALID,918.431,VALID,0,VALID,98.7004,VALID,142.037,VALID,20.4634,VALID,360,VALID,0,
2015-04-29, 07:22:04,VALID,918.429,VALID,0,VALID,98.6927,VALID,145.475,VALID,20.5399,VALID,38,VALID,0,
2015-04-29, 07:23:04,VALID,918.485,VALID,0,VALID,98.6927,VALID,138.277,VALID,20.6179,VALID,71,VALID,0,
2015-04-29, 07:24:04,VALID,918.502,VALID,0,VALID,98.6927,VALID,115.929,VALID,20.717,VALID,107,VALID,0,
2015-04-29, 07:25:04,VALID,918.491,VALID,0,VALID,98.6775,VALID,117.433,VALID,20.7544,VALID,113,VALID,0,
2015-04-29, 07:26:04,VALID,918.555,VALID,0,VALID,98.6775,VALID,113.888,VALID,20.795,VALID,159,VALID,0,
2015-04-29, 07:27:04,VALID,918.566,VALID,0,VALID,98.6699,VALID,115.499,VALID,20.7934,VALID,159,VALID,0,
2015-04-29, 07:28:04,VALID,918.616,VALID,0,VALID,98.7004,VALID,117.003,VALID,20.7544,VALID,159,VALID,0,
2015-04-29, 07:29:04,VALID,918.652,VALID,0,VALID,98.7156,VALID,118.615,VALID,20.7154,VALID,159,VALID,0,
2015-04-29, 07:30:04,VALID,918.666,VALID,0,VALID,98.6775,VALID,119.475,VALID,20.7349,VALID,159,VALID,0,
2015-04-29, 07:31:04,VALID,918.704,VALID,0,VALID,98.6394,VALID,119.689,VALID,20.7755,VALID,159,VALID,0,
2015-04-29, 07:32:04,VALID,918.751,VALID,0,VALID,98.6089,VALID,121.086,VALID,20.7739,VALID,172,VALID,0,
2015-04-29, 07:33:04,VALID,918.779,VALID,0,VALID,98.6241,VALID,123.128,VALID,20.795,VALID,177,VALID,0,
2015-04-29, 07:34:04,VALID,918.788,VALID,0,VALID,98.5708,VALID,125.706,VALID,20.8324,VALID,178,VALID,0,
2015-04-29, 07:35:04,VALID,918.772,VALID,0,VALID,98.5479,VALID,127.855,VALID,20.8535,VALID,178,VALID,0,
2015-04-29, 07:36:04,VALID,918.799,VALID,0,VALID,98.5327,VALID,129.037,VALID,20.8714,VALID,178,VALID,0,
2015-04-29, 07:37:04,VALID,918.797,VALID,0,VALID,98.5022,VALID,129.574,VALID,20.8714,VALID,178,VALID,0,
2015-04-29, 07:38:04,VALID,918.794,VALID,0,VALID,98.4412,VALID,131.186,VALID,20.891,VALID,178,VALID,0,
2015-04-29, 07:39:04,VALID,918.81,VALID,0,VALID,98.3878,VALID,130.756,VALID,20.93,VALID,185,VALID,0,
2015-04-29, 07:40:04,VALID,918.813,VALID,0,VALID,98.2963,VALID,128.392,VALID,20.9706,VALID,177,VALID,0,
2015-04-29, 07:41:04,VALID,918.778,VALID,0,VALID,98.2201,VALID,125.491,VALID,20.969,VALID,177,VALID,0,
2015-04-29, 07:42:04,VALID,918.825,VALID,0,VALID,98.1057,VALID,122.913,VALID,21.047,VALID,177,VALID,0,
2015-04-29, 07:43:04,VALID,918.843,VALID,0,VALID,97.9914,VALID,121.086,VALID,21.1055,VALID,177,VALID,0,
2015-04-29, 07:44:04,VALID,918.853,VALID,0,VALID,97.7703,VALID,119.689,VALID,21.1445,VALID,177,VALID,0,
2015-04-29, 07:45:04,VALID,918.869,VALID,0,VALID,97.5416,VALID,117.97,VALID,21.2226,VALID,177,VALID,0,
2015-04-29, 07:46:04,VALID,918.868,VALID,0,VALID,97.29,VALID,117.648,VALID,21.3201,VALID,177,VALID,0,
2015-04-29, 07:47:04,VALID,918.89,VALID,0,VALID,96.8555,VALID,117.756,VALID,21.338,VALID,177,VALID,0,
2015-04-29, 07:48:04,VALID,918.907,VALID,0,VALID,96.3142,VALID,118.078,VALID,21.3981,VALID,177,VALID,0,
2015-04-29, 07:49:04,VALID,918.9,VALID,0,VALID,95.9026,VALID,118.615,VALID,21.4372,VALID,177,VALID,0,
2015-04-29, 07:50:04,VALID,918.923,VALID,0,VALID,95.4909,VALID,119.582,VALID,21.4957,VALID,177,VALID,0,
2015-04-29, 07:51:04,VALID,918.923,VALID,0,VALID,95.1936,VALID,120.979,VALID,21.5526,VALID,177,VALID,0,
2015-04-29, 07:52:04,VALID,918.993,VALID,0,VALID,94.7591,VALID,123.02,VALID,21.6128,VALID,177,VALID,0,
2015-04-29, 07:53:04,VALID,919.022,VALID,0,VALID,94.4084,VALID,125.384,VALID,21.6713,VALID,177,VALID,0,
2015-04-29, 07:54:04,VALID,919.022,VALID,0,VALID,94.1034,VALID,127.962,VALID,21.7103,VALID,177,VALID,0,
2015-04-29, 07:55:04,VALID,919.044,VALID,0,VALID,93.9434,VALID,130.648,VALID,21.6323,VALID,177,VALID,0,
2015-04-29, 07:56:04,VALID,919.03,VALID,0,VALID,94.3779,VALID,133.979,VALID,21.6128,VALID,174,VALID,0,
2015-04-29, 07:57:04,VALID,919.064,VALID,0,VALID,94.3474,VALID,138.599,VALID,21.6128,VALID,173,VALID,0,
2015-04-29, 07:58:04,VALID,919.085,VALID,0,VALID,94.6447,VALID,143.649,VALID,21.6323,VALID,173,VALID,0,
2015-04-29, 07:59:04,VALID,919.105,VALID,0,VALID,94.66,VALID,148.484,VALID,21.6128,VALID,173,VALID,0,
2015-04-29, 08:00:04,VALID,919.136,VALID,0,VALID,94.8887,VALID,152.781,VALID,21.6713,VALID,173,VALID,0,
2015-04-29, 08:01:04,VALID,919.151,VALID,0,VALID,94.6371,VALID,156.757,VALID,21.6323,VALID,172,VALID,0,
2015-04-29, 08:02:04,VALID,919.16,VALID,0,VALID,94.5456,VALID,160.195,VALID,21.6323,VALID,172,VALID,0,
2015-04-29, 08:03:04,VALID,919.191,VALID,0,VALID,94.4999,VALID,163.418,VALID,21.6323,VALID,172,VALID,0,
2015-04-29, 08:04:04,VALID,919.214,VALID,0,VALID,94.6142,VALID,166.426,VALID,21.6891,VALID,172,VALID,0,
2015-04-29, 08:05:04,VALID,919.253,VALID,0,VALID,94.4084,VALID,169.65,VALID,21.7282,VALID,172,VALID,0,
2015-04-29, 08:06:04,VALID,919.24,VALID,0,VALID,94.2178,VALID,172.98,VALID,21.7883,VALID,172,VALID,0,
2015-04-29, 08:07:04,VALID,919.319,VALID,0,VALID,94.3017,VALID,176.311,VALID,21.8664,VALID,172,VALID,0,
2015-04-29, 08:08:04,VALID,919.314,VALID,0,VALID,93.2572,VALID,179.642,VALID,21.8664,VALID,172,VALID,0,
2015-04-29, 08:09:04,VALID,919.315,VALID,0,VALID,93.0514,VALID,183.402,VALID,21.964,VALID,172,VALID,0,
2015-04-29, 08:10:04,VALID,919.329,VALID,0,VALID,92.9981,VALID,187.377,VALID,22.0615,VALID,172,VALID,0,
2015-04-29, 08:11:04,VALID,919.31,VALID,0,VALID,91.9994,VALID,191.46,VALID,22.1396,VALID,172,VALID,0,
2015-04-29, 08:12:04,VALID,919.309,VALID,0,VALID,88.6222,VALID,195.221,VALID,22.1591,VALID,172,VALID,0,
2015-04-29, 08:13:04,VALID,919.3,VALID,0,VALID,87.25,VALID,199.196,VALID,22.2176,VALID,172,VALID,0,
2015-04-29, 08:14:04,VALID,919.262,VALID,0,VALID,87.4482,VALID,204.783,VALID,22.2371,VALID,172,VALID,0,
2015-04-29, 08:15:04,VALID,919.289,VALID,0,VALID,87.5397,VALID,203.708,VALID,22.3542,VALID,122,VALID,0,
2015-04-29, 08:16:04,VALID,919.262,VALID,0,VALID,87.1966,VALID,202.849,VALID,22.4518,VALID,122,VALID,0,
2015-04-29, 08:17:04,VALID,919.26,VALID,0,VALID,87.189,VALID,202.419,VALID,22.5299,VALID,122,VALID,0,
2015-04-29, 08:18:04,VALID,919.275,VALID,0,VALID,87.2576,VALID,200.163,VALID,22.5689,VALID,121,VALID,0,
2015-04-29, 08:19:04,VALID,919.284,VALID,0,VALID,87.8904,VALID,196.725,VALID,22.6096,VALID,121,VALID,0,
2015-04-29, 08:20:04,VALID,919.306,VALID,0,VALID,87.9666,VALID,193.179,VALID,22.6665,VALID,122,VALID,0,
2015-04-29, 08:21:04,VALID,919.328,VALID,0,VALID,88.7442,VALID,190.278,VALID,22.6274,VALID,121,VALID,0,
2015-04-29, 08:22:04,VALID,919.391,VALID,0,VALID,89.4913,VALID,189.634,VALID,22.4696,VALID,122,VALID,0,
2015-04-29, 08:23:04,VALID,919.421,VALID,0,VALID,91.7249,VALID,189.419,VALID,22.3347,VALID,220,VALID,0,
2015-04-29, 08:24:04,VALID,919.47,VALID,0,VALID,93.0209,VALID,189.634,VALID,22.2159,VALID,220,VALID,0,
2015-04-29, 08:25:04,VALID,919.506,VALID,0,VALID,93.5164,VALID,190.063,VALID,22.2371,VALID,220,VALID,0,
2015-04-29, 08:26:04,VALID,919.554,VALID,0,VALID,93.7528,VALID,190.708,VALID,22.2354,VALID,220,VALID,0,
2015-04-29, 08:27:04,VALID,919.6,VALID,0,VALID,93.8824,VALID,191.675,VALID,22.2762,VALID,220,VALID,0,
2015-04-29, 08:28:04,VALID,919.659,VALID,0,VALID,93.8138,VALID,188.022,VALID,22.2176,VALID,233,VALID,0,
2015-04-29, 08:29:04,VALID,919.713,VALID,0,VALID,93.9357,VALID,182.113,VALID,22.1184,VALID,233,VALID,0,
2015-04-29, 08:30:04,VALID,919.717,VALID,0,VALID,94.3779,VALID,182.757,VALID,22.1005,VALID,233,VALID,0,
2015-04-29, 08:31:04,VALID,919.728,VALID,0,VALID,94.5761,VALID,183.617,VALID,22.0598,VALID,233,VALID,0,
2015-04-29, 08:32:04,VALID,919.757,VALID,0,VALID,94.3626,VALID,185.658,VALID,22.0403,VALID,234,VALID,0,
2015-04-29, 08:33:04,VALID,919.739,VALID,0,VALID,94.3093,VALID,187.055,VALID,22.1005,VALID,234,VALID,0,
2015-04-29, 08:34:04,VALID,919.76,VALID,0,VALID,94.3626,VALID,189.096,VALID,22.1769,VALID,234,VALID,0,
2015-04-29, 08:35:04,VALID,919.764,VALID,0,VALID,94.355,VALID,194.361,VALID,22.255,VALID,234,VALID,0,
2015-04-29, 08:36:04,VALID,919.737,VALID,0,VALID,93.9205,VALID,202.527,VALID,22.3347,VALID,234,VALID,0,
2015-04-29, 08:37:04,VALID,919.734,VALID,0,VALID,93.3335,VALID,211.337,VALID,22.3933,VALID,234,VALID,0,
2015-04-29, 08:38:04,VALID,919.74,VALID,0,VALID,93.1353,VALID,218.75,VALID,22.4111,VALID,234,VALID,0,
2015-04-29, 08:39:04,VALID,919.751,VALID,0,VALID,90.4366,VALID,225.197,VALID,22.372,VALID,234,VALID,0,
2015-04-29, 08:40:04,VALID,919.76,VALID,0,VALID,89.8572,VALID,227.99,VALID,22.4111,VALID,234,VALID,0,
2015-04-29, 08:41:04,VALID,919.731,VALID,0,VALID,89.3846,VALID,230.354,VALID,22.5689,VALID,234,VALID,0,
2015-04-29, 08:42:04,VALID,919.719,VALID,0,VALID,87.6312,VALID,228.957,VALID,22.6843,VALID,234,VALID,0,
2015-04-29, 08:43:04,VALID,919.715,VALID,0,VALID,85.9769,VALID,226.808,VALID,22.8209,VALID,234,VALID,0,
2015-04-29, 08:44:04,VALID,919.728,VALID,0,VALID,83.4535,VALID,227.023,VALID,22.938,VALID,234,VALID,0,
2015-04-29, 08:45:04,VALID,919.709,VALID,0,VALID,83.9719,VALID,233.47,VALID,23.0941,VALID,234,VALID,0,
2015-04-29, 08:46:04,VALID,919.723,VALID,0,VALID,83.4078,VALID,264.198,VALID,23.2893,VALID,234,VALID,0,
2015-04-29, 08:47:04,VALID,919.743,VALID,0,VALID,83.0876,VALID,386.896,VALID,23.5235,VALID,234,VALID,0,
2015-04-29, 08:48:04,VALID,919.758,VALID,0,VALID,80.7701,VALID,257.107,VALID,23.7578,VALID,234,VALID,0,
2015-04-29, 08:49:04,VALID,919.737,VALID,0,VALID,80.3661,VALID,253.346,VALID,23.9139,VALID,140,VALID,0,
2015-04-29, 08:50:04,VALID,919.763,VALID,0,VALID,78.445,VALID,241.205,VALID,24.0896,VALID,140,VALID,0,
2015-04-29, 08:51:04,VALID,919.784,VALID,0,VALID,77.2328,VALID,241.743,VALID,24.2654,VALID,140,VALID,0,
2015-04-29, 08:52:04,VALID,919.786,VALID,0,VALID,76.7754,VALID,244.644,VALID,24.3825,VALID,140,VALID,0,
2015-04-29, 08:53:04,VALID,919.796,VALID,0,VALID,76.1503,VALID,253.024,VALID,24.4801,VALID,140,VALID,0,
2015-04-29, 08:54:04,VALID,919.808,VALID,0,VALID,76.196,VALID,259.578,VALID,24.5192,VALID,140,VALID,0,
2015-04-29, 08:55:04,VALID,919.845,VALID,0,VALID,73.7565,VALID,262.909,VALID,24.4801,VALID,157,VALID,0,
2015-04-29, 08:56:04,VALID,919.857,VALID,0,VALID,74.153,VALID,243.999,VALID,24.2458,VALID,243,VALID,0,
2015-04-29, 08:57:04,VALID,919.835,VALID,0,VALID,74.1149,VALID,224.122,VALID,23.9707,VALID,242,VALID,0,
2015-04-29, 08:58:04,VALID,919.847,VALID,0,VALID,80.0306,VALID,226.164,VALID,23.756,VALID,243,VALID,0,
2015-04-29, 08:59:04,VALID,919.853,VALID,0,VALID,82.0661,VALID,233.147,VALID,23.5821,VALID,243,VALID,0,
2015-04-29, 09:00:04,VALID,919.842,VALID,0,VALID,82.4854,VALID,247.222,VALID,23.4632,VALID,240,VALID,0,
2015-04-29, 09:01:04,VALID,919.838,VALID,0,VALID,82.7141,VALID,273.115,VALID,23.5022,VALID,223,VALID,0,
2015-04-29, 09:02:04,VALID,919.844,VALID,0,VALID,81.0445,VALID,333.282,VALID,23.5803,VALID,223,VALID,0,
2015-04-29, 09:03:04,VALID,919.856,VALID,0,VALID,81.319,VALID,513.569,VALID,23.6779,VALID,223,VALID,0,
2015-04-29, 09:04:04,VALID,919.833,VALID,0,VALID,80.7625,VALID,528.933,VALID,23.7968,VALID,223,VALID,0,
2015-04-29, 09:05:04,VALID,919.827,VALID,0,VALID,78.5212,VALID,462.964,VALID,23.9707,VALID,223,VALID,0,
2015-04-29, 09:06:04,VALID,919.807,VALID,0,VALID,78.6965,VALID,441.476,VALID,24.2068,VALID,225,VALID,0,
2015-04-29, 09:07:04,VALID,919.777,VALID,0,VALID,78.4221,VALID,808.387,VALID,24.2049,VALID,233,VALID,0,
2015-04-29, 09:08:04,VALID,919.782,VALID,0,VALID,74.9992,VALID,748.113,VALID,24.283,VALID,329,VALID,0,
2015-04-29, 09:09:04,VALID,919.708,VALID,0,VALID,76.5391,VALID,709.004,VALID,24.4216,VALID,330,VALID,0,
2015-04-29, 09:10:04,VALID,919.694,VALID,0,VALID,76.318,VALID,547.735,VALID,24.6363,VALID,5,VALID,0,
2015-04-29, 09:11:04,VALID,919.701,VALID,0,VALID,73.7718,VALID,491.436,VALID,24.8492,VALID,248,VALID,0,
2015-04-29, 09:12:04,VALID,919.692,VALID,0,VALID,73.1924,VALID,507.23,VALID,24.9078,VALID,277,VALID,0,
2015-04-29, 09:13:04,VALID,919.656,VALID,0,VALID,74.4122,VALID,387.433,VALID,24.9469,VALID,289,VALID,0,
2015-04-29, 09:14:04,VALID,919.676,VALID,0,VALID,75.2812,VALID,377.226,VALID,24.9274,VALID,223,VALID,0,
2015-04-29, 09:15:04,VALID,919.691,VALID,0,VALID,75.3498,VALID,374.432,VALID,24.9859,VALID,136,VALID,0,
2015-04-29, 09:16:04,VALID,919.684,VALID,0,VALID,75.0602,VALID,403.871,VALID,24.8278,VALID,127,VALID,0.104297,
2015-04-29, 09:17:04,VALID,919.715,VALID,0,VALID,76.7602,VALID,403.442,VALID,24.8864,VALID,182,VALID,0,
2015-04-29, 09:18:04,VALID,919.685,VALID,0,VALID,74.0386,VALID,410.533,VALID,25.0036,VALID,156,VALID,0,
2015-04-29, 09:19:04,VALID,919.713,VALID,0,VALID,72.674,VALID,382.92,VALID,25.0817,VALID,171,VALID,0,
2015-04-29, 09:20:04,VALID,919.678,VALID,0,VALID,71.1036,VALID,397.21,VALID,25.1207,VALID,196,VALID,0.680469,
2015-04-29, 09:21:04,VALID,919.639,VALID,0,VALID,70.6386,VALID,398.822,VALID,25.0231,VALID,184,VALID,0.3375,
2015-04-29, 09:22:04,VALID,919.716,VALID,0,VALID,70.8368,VALID,424.715,VALID,24.9469,VALID,243,VALID,0.533984,
2015-04-29, 09:23:04,VALID,919.661,VALID,0,VALID,72.7426,VALID,399.896,VALID,24.7907,VALID,222,VALID,0,
2015-04-29, 09:24:04,VALID,919.667,VALID,0,VALID,72.674,VALID,416.979,VALID,24.6949,VALID,250,VALID,0,
2015-04-29, 09:25:04,VALID,919.657,VALID,0,VALID,71.8659,VALID,434.062,VALID,24.693,VALID,232,VALID,0,
2015-04-29, 09:26:04,VALID,919.68,VALID,0,VALID,74.0691,VALID,419.987,VALID,24.6345,VALID,252,VALID,0,
2015-04-29, 09:27:04,VALID,919.678,VALID,0,VALID,73.0476,VALID,369.06,VALID,24.5368,VALID,251,VALID,0,
2015-04-29, 09:28:04,VALID,919.685,VALID,0,VALID,75.4108,VALID,358.101,VALID,24.4392,VALID,253,VALID,0,
2015-04-29, 09:29:04,VALID,919.72,VALID,0,VALID,74.2597,VALID,353.804,VALID,24.4178,VALID,251,VALID,0,
2015-04-29, 09:30:04,VALID,919.729,VALID,0,VALID,74.153,VALID,351.225,VALID,24.244,VALID,248,VALID,0,
2015-04-29, 09:31:04,VALID,919.763,VALID,0,VALID,76.0817,VALID,407.095,VALID,24.1854,VALID,255,VALID,0,
2015-04-29, 09:32:04,VALID,919.755,VALID,0,VALID,76.2647,VALID,437.5,VALID,24.2245,VALID,248,VALID,0,
2015-04-29, 09:33:04,VALID,919.746,VALID,0,VALID,76.3409,VALID,422.888,VALID,24.2049,VALID,248,VALID,0,
2015-04-29, 09:34:04,VALID,919.728,VALID,0,VALID,76.7525,VALID,388.722,VALID,24.2617,VALID,215,VALID,0,
2015-04-29, 09:35:04,VALID,919.702,VALID,0,VALID,76.4934,VALID,392.053,VALID,24.3611,VALID,253,VALID,0.591016,
2015-04-29, 09:36:04,VALID,919.743,VALID,0,VALID,78.5593,VALID,487.246,VALID,24.283,VALID,251,VALID,0,
2015-04-29, 09:37:04,VALID,919.745,VALID,0,VALID,77.0804,VALID,593.075,VALID,24.2812,VALID,247,VALID,0,
2015-04-29, 09:38:04,VALID,919.721,VALID,0,VALID,77.3548,VALID,419.45,VALID,24.3593,VALID,252,VALID,0,
2015-04-29, 09:39:04,VALID,919.716,VALID,0,VALID,75.5633,VALID,488.965,VALID,24.4783,VALID,227,VALID,0,
2015-04-29, 09:40:04,VALID,919.675,VALID,0,VALID,75.5938,VALID,481.014,VALID,24.6326,VALID,222,VALID,0,
2015-04-29, 09:41:04,VALID,919.699,VALID,0,VALID,75.5099,VALID,352.514,VALID,24.8883,VALID,259,VALID,0,
2015-04-29, 09:42:04,VALID,919.682,VALID,0,VALID,75.8911,VALID,536.131,VALID,25.0036,VALID,270,VALID,0,
2015-04-29, 09:43:04,VALID,919.655,VALID,0,VALID,75.7463,VALID,532.263,VALID,24.945,VALID,265,VALID,0,
2015-04-29, 09:44:04,VALID,919.653,VALID,0,VALID,74.1301,VALID,529.685,VALID,24.945,VALID,224,VALID,0,
2015-04-29, 09:45:04,VALID,919.658,VALID,0,VALID,75.792,VALID,269.033,VALID,24.9645,VALID,241,VALID,0.0183594,
2015-04-29, 09:46:04,VALID,919.634,VALID,0,VALID,76.9203,VALID,590.926,VALID,24.9255,VALID,247,VALID,0,
2015-04-29, 09:47:04,VALID,919.558,VALID,0,VALID,76.6001,VALID,348.647,VALID,24.9645,VALID,247,VALID,0,
2015-04-29, 09:48:04,VALID,919.537,VALID,0,VALID,75.8835,VALID,843.735,VALID,25.0817,VALID,256,VALID,0,
2015-04-29, 09:49:04,VALID,919.52,VALID,0,VALID,75.2965,VALID,848.893,VALID,25.3941,VALID,347,VALID,0,
2015-04-29, 09:50:04,VALID,919.516,VALID,0,VALID,73.6956,VALID,827.082,VALID,25.7046,VALID,341,VALID,0,
2015-04-29, 09:51:04,VALID,919.52,VALID,0,VALID,69.739,VALID,887.464,VALID,25.7651,VALID,291,VALID,0.579297,
2015-04-29, 09:52:04,VALID,919.495,VALID,0,VALID,68.9386,VALID,909.382,VALID,25.7847,VALID,330,VALID,0.696094,
2015-04-29, 09:53:04,VALID,919.479,VALID,0,VALID,70.2422,VALID,875.43,VALID,25.8042,VALID,341,VALID,0.223047,
2015-04-29, 09:54:04,VALID,919.482,VALID,0,VALID,69.6704,VALID,951.177,VALID,25.7437,VALID,359,VALID,0.0855469,
2015-04-29, 09:55:04,VALID,919.464,VALID,0,VALID,72.026,VALID,445.666,VALID,25.9194,VALID,321,VALID,0,
2015-04-29, 09:56:04,VALID,919.454,VALID,0,VALID,67.3148,VALID,406.665,VALID,25.7085,VALID,256,VALID,0,
2015-04-29, 09:57:04,VALID,919.385,VALID,0,VALID,70.4709,VALID,758.427,VALID,25.6304,VALID,352,VALID,1.84219,
2015-04-29, 09:58:04,VALID,919.386,VALID,0,VALID,71.2561,VALID,909.704,VALID,25.5894,VALID,337,VALID,0.453906,
2015-04-29, 09:59:04,VALID,919.396,VALID,0,VALID,70.7682,VALID,790.337,VALID,25.5503,VALID,314,VALID,0,
2015-04-29, 10:00:04,VALID,919.39,VALID,0,VALID,71.5763,VALID,767.452,VALID,25.6304,VALID,314,VALID,0.121094,
2015-04-29, 10:01:04,VALID,919.386,VALID,0,VALID,70.913,VALID,360.358,VALID,25.6089,VALID,304,VALID,0.217578,
2015-04-29, 10:02:04,VALID,919.361,VALID,0,VALID,71.6372,VALID,338.547,VALID,25.5894,VALID,312,VALID,0,
2015-04-29, 10:03:04,VALID,919.359,VALID,0,VALID,71.8812,VALID,340.374,VALID,25.7847,VALID,337,VALID,0,
2015-04-29, 10:04:04,VALID,919.343,VALID,0,VALID,72.3386,VALID,401.185,VALID,25.9409,VALID,337,VALID,0,
2015-04-29, 10:05:04,VALID,919.301,VALID,0,VALID,70.57,VALID,990.93,VALID,26.0581,VALID,1,VALID,0,
2015-04-29, 10:06:04,VALID,919.299,VALID,0,VALID,71.3018,VALID,717.385,VALID,26.2339,VALID,15,VALID,0.325,
2015-04-29, 10:07:04,VALID,919.26,VALID,0,VALID,70.6614,VALID,501.75,VALID,26.4077,VALID,45,VALID,0.193359,
2015-04-29, 10:08:04,VALID,919.26,VALID,0,VALID,70.5547,VALID,1090.31,VALID,26.6636,VALID,40,VALID,0.521875,
2015-04-29, 10:09:04,VALID,919.239,VALID,0,VALID,69.2969,VALID,685.475,VALID,26.896,VALID,34,VALID,0,
2015-04-29, 10:10:04,VALID,919.218,VALID,0,VALID,69.0224,VALID,564.388,VALID,27.0739,VALID,40,VALID,0.05,
2015-04-29, 10:11:04,VALID,919.199,VALID,0,VALID,68.4964,VALID,461.675,VALID,27.1891,VALID,359,VALID,0.194922,
2015-04-29, 10:12:04,VALID,919.202,VALID,0,VALID,69.6628,VALID,442.658,VALID,27.0914,VALID,26,VALID,0.452734,
2015-04-29, 10:13:04,VALID,919.222,VALID,0,VALID,70.5852,VALID,325.869,VALID,27.1305,VALID,346,VALID,0.385156,
2015-04-29, 10:14:04,VALID,919.226,VALID,0,VALID,70.2955,VALID,338.44,VALID,26.7398,VALID,327,VALID,0.532031,
2015-04-29, 10:15:04,VALID,919.172,VALID,0,VALID,71.9574,VALID,351.762,VALID,26.2534,VALID,7,VALID,0.383984,
2015-04-29, 10:16:04,VALID,919.22,VALID,0,VALID,74.8086,VALID,422.244,VALID,25.8804,VALID,328,VALID,0,
2015-04-29, 10:17:04,VALID,919.208,VALID,0,VALID,75.6548,VALID,416.12,VALID,25.5503,VALID,279,VALID,0.209375,
2015-04-29, 10:18:04,VALID,919.176,VALID,0,VALID,76.8974,VALID,353.159,VALID,25.5679,VALID,4,VALID,0,
2015-04-29, 10:19:04,VALID,919.148,VALID,0,VALID,75.0754,VALID,405.913,VALID,25.607,VALID,261,VALID,0.0417969,
2015-04-29, 10:20:04,VALID,919.139,VALID,0,VALID,74.6332,VALID,702.88,VALID,25.5894,VALID,230,VALID,0,
2015-04-29, 10:21:04,VALID,919.123,VALID,0,VALID,74.5341,VALID,818.702,VALID,25.5289,VALID,230,VALID,0,
2015-04-29, 10:22:04,VALID,919.123,VALID,0,VALID,76.0893,VALID,648.945,VALID,25.646,VALID,1,VALID,0.516406,
2015-04-29, 10:23:04,VALID,919.131,VALID,0,VALID,73.8633,VALID,848.893,VALID,25.9409,VALID,351,VALID,0,
2015-04-29, 10:24:04,VALID,919.153,VALID,0,VALID,72.2471,VALID,823.966,VALID,25.7241,VALID,291,VALID,2.13047,
2015-04-29, 10:25:04,VALID,919.102,VALID,0,VALID,74.4198,VALID,831.595,VALID,25.3336,VALID,262,VALID,0.368359,
2015-04-29, 10:26:04,VALID,919.109,VALID,0,VALID,75.4566,VALID,822.032,VALID,25.2945,VALID,244,VALID,0,
2015-04-29, 10:27:04,VALID,919.119,VALID,0,VALID,76.501,VALID,620.043,VALID,25.5289,VALID,280,VALID,0,
2015-04-29, 10:28:04,VALID,919.077,VALID,0,VALID,75.0525,VALID,481.229,VALID,25.8022,VALID,218,VALID,0,
2015-04-29, 10:29:04,VALID,919.1,VALID,0,VALID,74.092,VALID,493.477,VALID,25.9019,VALID,237,VALID,0.178125,
2015-04-29, 10:30:04,VALID,919.081,VALID,0,VALID,73.5888,VALID,488.857,VALID,25.8413,VALID,257,VALID,0.0289063,
2015-04-29, 10:31:04,VALID,919.069,VALID,0,VALID,72.6207,VALID,493.8,VALID,25.8022,VALID,335,VALID,0.559766,
2015-04-29, 10:32:04,VALID,919.066,VALID,0,VALID,72.5825,VALID,496.7,VALID,25.8022,VALID,301,VALID,0,
2015-04-29, 10:33:04,VALID,919.058,VALID,0,VALID,72.7579,VALID,513.569,VALID,25.8218,VALID,284,VALID,0.00429688,
2015-04-29, 10:34:04,VALID,919.055,VALID,0,VALID,74.557,VALID,582.331,VALID,25.7808,VALID,270,VALID,0,
2015-04-29, 10:35:04,VALID,919.042,VALID,0,VALID,73.7413,VALID,432.773,VALID,26.0171,VALID,270,VALID,0,
2015-04-29, 10:36:04,VALID,919.034,VALID,0,VALID,70.8901,VALID,399.144,VALID,26.2124,VALID,340,VALID,0,
2015-04-29, 10:37:04,VALID,919.036,VALID,0,VALID,67.7264,VALID,500.891,VALID,26.1928,VALID,317,VALID,0.5,
2015-04-29, 10:38:04,VALID,919.001,VALID,0,VALID,70.4785,VALID,496.056,VALID,25.8999,VALID,316,VALID,0,
2015-04-29, 10:39:04,VALID,919.016,VALID,0,VALID,71.7973,VALID,533.338,VALID,25.8979,VALID,17,VALID,0,
2015-04-29, 10:40:04,VALID,918.976,VALID,0,VALID,72.2776,VALID,407.417,VALID,26.0952,VALID,26,VALID,0,
2015-04-29, 10:41:04,VALID,919.011,VALID,0,VALID,71.1341,VALID,423.963,VALID,26.2124,VALID,312,VALID,0.239844,
2015-04-29, 10:42:04,VALID,918.967,VALID,0,VALID,69.5179,VALID,390.011,VALID,26.1147,VALID,282,VALID,0.4,
2015-04-29, 10:43:04,VALID,918.998,VALID,0,VALID,71.5991,VALID,354.878,VALID,25.8003,VALID,281,VALID,0,
2015-04-29, 10:44:04,VALID,918.974,VALID,0,VALID,72.2319,VALID,353.481,VALID,25.6831,VALID,353,VALID,0.0707031,
2015-04-29, 10:45:04,VALID,918.934,VALID,0,VALID,72.9027,VALID,419.343,VALID,25.7612,VALID,357,VALID,0,
2015-04-29, 10:46:04,VALID,918.916,VALID,0,VALID,70.6462,VALID,371.531,VALID,25.8784,VALID,357,VALID,0,
2015-04-29, 10:47:04,VALID,918.913,VALID,0,VALID,71.0655,VALID,337.58,VALID,25.8784,VALID,36,VALID,0,
2015-04-29, 10:48:04,VALID,918.9,VALID,0,VALID,72.6969,VALID,299.546,VALID,25.7046,VALID,244,VALID,0.933203,
2015-04-29, 10:49:04,VALID,918.868,VALID,0,VALID,73.8252,VALID,288.157,VALID,25.5874,VALID,252,VALID,0,
2015-04-29, 10:50:04,VALID,918.852,VALID,0,VALID,72.735,VALID,288.802,VALID,25.5484,VALID,239,VALID,0,
2015-04-29, 10:51:04,VALID,918.877,VALID,0,VALID,75.3346,VALID,289.446,VALID,25.5679,VALID,262,VALID,0,
2015-04-29, 10:52:04,VALID,918.841,VALID,0,VALID,74.4732,VALID,302.877,VALID,25.7046,VALID,29,VALID,0.0632813,
2015-04-29, 10:53:04,VALID,918.863,VALID,0,VALID,71.7897,VALID,319.53,VALID,25.7827,VALID,67,VALID,0,
2015-04-29, 10:54:04,VALID,918.87,VALID,0,VALID,73.627,VALID,339.084,VALID,25.8393,VALID,55,VALID,0,